Location: Home
(42.5358°N, 72.7383°W)
Time: 04:00:15
(UTC-04:00)

Explorer 11/Cluster Stage 4 - Pass Details

Date: 26 April 2025
Orbit: 463 x 1190 km, 28.8° (Epoch: 11 May)

Event Time Altitude Azimuth Distance (km) Brightness Sun altitude
Rises 04:54:50 0° 242° (WSW) 3,969 - -10.5°
Reaches altitude 10° 04:58:21 10° 230° (SW) 2,923 - -9.9°
Exits shadow 04:58:41 11° 228° (SW) 2,831 8.8 -9.9°
Maximum altitude 05:03:51 24° 180° (S) 1,919 8.3 -9.0°
Drops below altitude 10° 05:08:42 10° 129° (SE) 2,544 9.5 -8.2°
Sets 05:11:32 0° 115° (ESE) 3,350 10.4 -7.8°
